Flag for United Kingdom

Past Weather in Walsall, England, United Kingdom — Yesterday and Last 2 Weeks

Now
63 °F

Passing clouds.


Feels Like: 63 °F
Forecast: 62 / 53 °F
Wind: 10 mph from Southwest

Location: Birmingham / Airport

Current Time: Jul 4, 2020 at 11:11:01 pm

Latest Report: Jul 4, 2020 at 10:20 pm


Visibility: N/A

Pressure: 29.74 "Hg

Humidity: 77%

Dew Point: 55 °F

Location of WalsallLocation

Past Weather in Walsall — Graph

°F

Walsall Temperature Yesterday

Maximum temperature yesterday: 63 °F (at 10:50 am)
Minimum temperature yesterday: 52 °F (at 4:50 am)
Average temperature yesterday: 58 °F

High & Low Weather Summary for the Past Weeks

 TemperatureHumidityPressure
High86 °F (Jun 25, 4:50 pm)100% (Jun 20, 2:50 am)30.24 "Hg (Jun 20, 2:50 am)
Low46 °F (Jun 22, 4:50 am)35% (Jun 25, 4:50 pm)29.53 "Hg (Jun 27, 12:20 pm)
Average63 °F72%29.88 "Hg
* Reported Jun 19 9:20 pm — Jul 4 9:50 pm, Walsall. Weather by CustomWeather, © 2020

Note: Actual official high and low records may vary slightly from our data, if they occured in-between our weather recording intervals... More about our weather records

Walsall Weather History for the Previous 24 Hours

Scroll right to see more
 ConditionsComfort  
Time TempWeatherWind HumidityBarometerVisibility
9:50 pm
Sat, Jul 4
64 °FPassing clouds.10 mph78%29.74 "HgN/A
9:20 pm64 °FPartly sunny.12 mph78%29.74 "HgN/A
8:50 pm64 °FPartly sunny.10 mph78%29.74 "HgN/A
8:20 pm66 °FPartly sunny.9 mph73%29.74 "HgN/A
7:50 pm66 °FPartly sunny.10 mph73%29.74 "HgN/A
7:20 pm66 °FPartly sunny.12 mph73%29.74 "HgN/A
6:50 pm66 °FPartly sunny.7 mph73%29.74 "HgN/A
6:20 pm66 °FPartly sunny.8 mph73%29.74 "HgN/A
5:50 pm66 °FPartly sunny.8 mph73%29.77 "HgN/A
5:20 pm66 °FPartly sunny.9 mph73%29.77 "HgN/A
4:50 pm66 °FBroken clouds.8 mph78%29.77 "HgN/A
4:20 pm66 °FLight rain. Partly sunny.10 mph78%29.77 "HgN/A
3:50 pm64 °FScattered showers. Partly sunny.12 mph83%29.77 "HgN/A
3:20 pm66 °FPartly sunny.9 mph73%29.77 "HgN/A
2:50 pm66 °FPartly sunny.9 mph78%29.77 "HgN/A
2:20 pm66 °FPartly sunny.10 mph73%29.77 "HgN/A
1:50 pm66 °FPartly sunny.10 mph73%29.77 "HgN/A
1:20 pm66 °FPartly sunny.13 mph73%29.77 "HgN/A
12:50 pm66 °FPartly sunny.9 mph73%29.77 "HgN/A
12:20 pm64 °FOvercast.10 mph78%29.77 "HgN/A
11:50 am64 °FMostly cloudy.9 mph78%29.77 "HgN/A
11:20 am64 °FMostly cloudy.10 mph78%29.77 "HgN/A
10:50 am64 °FPartly sunny.10 mph78%29.77 "HgN/A
10:20 am64 °FPartly sunny.9 mph78%29.77 "HgN/A
9:50 am63 °FPartly sunny.9 mph83%29.77 "HgN/A
9:20 am63 °FMostly cloudy.9 mph83%29.74 "HgN/A
8:50 am63 °FMostly cloudy.9 mph83%29.74 "HgN/A
8:20 am63 °FPartly sunny.8 mph83%29.74 "HgN/A
7:50 am61 °FPartly sunny.8 mph88%29.77 "HgN/A
7:20 am61 °FCloudy.8 mph88%29.77 "HgN/A
6:50 am61 °FMostly cloudy.8 mph88%29.74 "HgN/A
6:20 am61 °FMostly cloudy.9 mph88%29.74 "HgN/A
5:50 am61 °FPartly sunny.10 mph88%29.74 "HgN/A
5:20 am61 °FPartly sunny.10 mph88%29.74 "HgN/A
4:50 am61 °FPassing clouds.9 mph88%29.74 "HgN/A
4:20 am61 °FPassing clouds.9 mph88%29.77 "HgN/A
3:50 am61 °FOvercast.10 mph88%29.77 "HgN/A
3:20 am61 °FPassing clouds.12 mph88%29.77 "HgN/A
2:50 am61 °FOvercast.13 mph88%29.77 "HgN/A
2:20 am61 °FOvercast.9 mph88%29.77 "HgN/A
1:50 am59 °FOvercast.12 mph94%29.80 "HgN/A
1:20 am59 °FLow clouds.12 mph94%29.80 "HgN/A
12:50 am59 °FMostly cloudy.13 mph88%29.80 "HgN/A
12:20 am59 °FPassing clouds.12 mph88%29.80 "HgN/A
11:50 pm
Fri, Jul 3
59 °FPassing clouds.12 mph88%29.80 "HgN/A
11:20 pm59 °FMostly cloudy.10 mph88%29.83 "HgN/A
Weather by CustomWeather, © 2020

See weather overview